Location: Unspecified
(0.0000°N, 0.0000°E)
Time: 16:25:07
(UTC+00:00)

Tiros 1 - All Passes

Search period start: 12 April 2021 00:00
Search period end: 22 April 2021 00:00
Orbit: 630 x 663 km, 48.4° (Epoch: 11 April)

Date Brightness Start Highest point End Pass type
(mag) Time Alt. Az. Time Alt. Az. Time Alt. Az.
12 Apr - 07:53:50 10° SSE 07:56:38 15° SE 07:59:24 10° E daylight
12 Apr - 09:34:17 10° WSW 09:38:41 40° NW 09:43:03 10° NNE daylight
12 Apr - 20:05:28 10° N 20:09:27 27° NE 20:13:28 10° ESE visible
12 Apr - 21:47:43 10° WNW 21:51:28 23° SW 21:55:16 10° S night (unlit)
13 Apr - 08:18:02 10° SSW 08:22:36 49° SE 08:27:06 10° NE daylight
13 Apr - 10:02:36 10° WNW 10:04:38 13° NW 10:06:39 10° NNW daylight
13 Apr - 20:30:39 10° NW 20:35:20 88° SW 20:40:07 10° SE visible
14 Apr - 07:04:02 10° SSE 07:06:24 14° SE 07:08:46 10° E daylight
14 Apr - 08:43:58 10° SW 08:48:29 46° NW 08:52:56 10° NNE daylight
14 Apr - 19:15:28 10° N 19:19:14 24° NE 19:23:03 10° ESE visible
14 Apr - 20:57:20 10° WNW 21:01:15 26° SW 21:05:14 10° S visible
15 Apr - 07:27:53 10° SSW 07:32:23 43° SE 07:36:49 10° ENE daylight
15 Apr - 09:11:51 10° W 09:14:24 14° NW 09:16:58 10° NNW daylight
15 Apr - 19:40:27 10° NW 19:45:08 81° NE 19:49:53 10° SE visible
16 Apr - 06:14:21 10° SSE 06:16:10 12° SE 06:18:00 10° ESE daylight
16 Apr - 07:53:40 10° SW 07:58:16 53° NW 08:02:49 10° NNE daylight
16 Apr - 18:25:30 10° N 18:29:01 21° NE 18:32:35 10° E visible
16 Apr - 20:06:57 10° WNW 20:11:02 29° SW 20:15:10 10° S visible
17 Apr - 06:37:46 10° SSW 06:42:11 38° SE 06:46:32 10° ENE daylight
17 Apr - 08:21:13 10° W 08:24:12 17° NW 08:27:08 10° N daylight
17 Apr - 18:50:17 10° NNW 18:54:55 71° NE 18:59:38 10° SE visible
18 Apr - 05:25:01 10° SE 05:25:56 10° SE 05:26:53 10° ESE visible
18 Apr - 07:03:23 10° SW 07:08:04 62° NW 07:12:41 10° NNE daylight
18 Apr - 17:35:34 10° N 17:38:49 19° NE 17:42:05 10° E daylight
18 Apr - 19:16:37 10° WNW 19:20:49 33° SW 19:25:06 10° SSE visible
19 Apr - 05:47:40 10° SSW 05:51:58 33° SE 05:56:12 10° ENE daylight
19 Apr - 07:30:40 10° W 07:33:58 19° NW 07:37:16 10° N daylight
19 Apr - 18:00:08 10° NNW 18:04:43 61° NE 18:09:22 10° SE daylight
19 Apr - 19:46:01 10° WSW 19:46:50 10° SW 19:47:40 10° SW visible
20 Apr - 06:13:07 10° SW 06:17:51 71° NW 06:22:32 10° NNE daylight
20 Apr - 16:45:42 10° NNE 16:48:36 16° NE 16:51:31 10° E daylight
20 Apr - 18:26:18 10° WNW 18:30:36 38° SW 18:34:59 10° SSE visible
21 Apr - 04:57:35 10° S 05:01:44 30° SE 05:05:51 10° ENE visible
21 Apr - 06:40:10 10° W 06:43:46 21° NW 06:47:20 10° N daylight
21 Apr - 17:10:00 10° NNW 17:14:31 53° NE 17:19:05 10° SE daylight
21 Apr - 18:54:51 10° WSW 18:56:36 12° SW 18:58:23 10° SSW visible
